Other Surface Observations
Issued by NWS Tucson, AZ

Home | Current Version | Previous Version | Text Only | Print | Product List | Glossary On
Versions: 1 2 3 4 5 6 7 8 9 10 11 12 13 14 15 16 17 18 19 20 21 22 23 24 25 26 27 28 29 30 31 32 33 34 35 36 37 38 39 40 41 42 43 44 45 46 47 48 49 50
000
SXUS55 KTWC 161616
OSOTWC

WEATHER ROUNDUP FOR SOUTHEAST ARIZONA
NATIONAL WEATHER SERVICE TUCSON AZ
915 AM MST TUE SEP 16 2014

AZZ504>506-514-161715-
LOCATION       SKY/WX    TMP DP  RH WIND       PRES   REMARKS
TUCSON         CLOUDY    75  66  73 E6        30.06S
DAVIS-MONTHAN  CLOUDY    73  65  76 E7        30.04S
CHILDRENS PARK N/A       71  68  90 SE2               PIMA CO DEQ
ALVERNON/22ND  N/A      N/A N/A N/A N/A               PIMA CO DEQ
CHERRY/GLENN   N/A      N/A N/A N/A N/A               PIMA CO DEQ
TANGERINE      N/A       70 N/A N/A SE5               PIMA CO DEQ
CONTL RANCH    N/A       72  68  87 SE8               PIMA CO DEQ
GRANT/1ST      N/A       72  69  89 S3                PIMA CO DEQ
CRAYCROFT/22ND N/A      N/A N/A N/A N/A               PIMA CO DEQ
GOLFLINKS/KOLB N/A       72  67  84 E2                PIMA CO DEQ
AJO/12TH       N/A       71  67  87 S6                PIMA CO DEQ
SAGUARO EAST   N/A      N/A N/A N/A N/A               PIMA CO DEQ
FAIRGROUNDS    N/A       70 N/A N/A SE11              PIMA CO DEQ
SAGUARO        N/A       72  69  90 NW2               *SABINO CYN
SAN CARLOS     N/A       77  62  59 SE10G17           *SAN CARLOS
GREEN VALLEY   N/A       69  67  92 N6                PIMA CO DEQ
HORSE CAMP CYN N/A       68  62  81 E16G22            *ARAVAIPA CYN
RINCON MTNS    N/A       52  52  100 E8G16            *NR MANNING CAMP
$$

AZZ509>511-161715-
LOCATION       SKY/WX    TMP DP  RH WIND       PRES   REMARKS
SAFFORD        LGT RAIN  70  66  87 SE6       30.13S
STRAY HORSE    N/A       54  53  97 E4                *
TRAIL CABIN    N/A       59  58  98 E6G13             *N OF GRANVILLE
BLACK HILLS    N/A       68  66  92 SE8G19            *N OF FT THOMAS
DRY LAKE       N/A       56  56  99 SE6G11            *NATANES MTNS
NOON CREEK     N/A       64  63  95 CALM              *PINALENO MTNS
COLUMBINE      N/A       50  49  96 S4G10             *PINALENO MTNS
GUTHRIE        N/A       57  57  99 NE12G15           *SW OF GUTHRIE
$$

AZZ502-503-513-161715-
LOCATION       SKY/WX    TMP DP  RH WIND       PRES   REMARKS
NOGALES        CLOUDY    71  64  78 CALM      30.08S
SELLS          N/A       72  69  89 NE8G11            *
SASABE         N/A       68  66  92 CALM              *ALTAR VLY
HOPKINS        N/A       56  54  92 E25G40            *SANTA RITA MTNS
CARR CYN       N/A       62  61  97 CALM              *W OF HEREFORD
$$

AZZ507-508-512-161715-
LOCATION       SKY/WX    TMP DP  RH WIND       PRES   REMARKS
SIERRA VISTA   LGT RAIN  66  64  94 E5        30.18R
DOUGLAS        CLOUDY    71  64  78 E8        30.15S
EMPIRE MTNS    N/A       66  63  91 N2                *LAS CIENEGAS NCA
MULESHOE RANCH N/A       66  59  78 E10G19            *PRESERVE
HEADQUARTERS   N/A       64  61  90 E8G16             *CHIRICAHUA MTNS
$$

.............................NOTES.............................
THIS IS AN AUTOMATED COLLECTIVE WITH MINIMAL QUALITY CONTROL.
PIMA CO DEQ SITES HAVE NONSTANDARD WIND SENSOR HEIGHTS.
PIMA CO DEQ SITES DO NOT REPORT WIND GUSTS.
* INDICATES WIND SENSORS LOCATED AT 20 FEET INSTEAD OF 33 FEET.
..............................KEY..............................
SKY/WX - SKY CONDITION/WEATHER
TMP    - TEMPERATURE IN FAHRENHEIT
DP     - DEWPOINT IN FAHRENHEIT
RH     - RELATIVE HUMIDITY IN PERCENT
WIND   - DIRECTION AND SPEED IN MILES PER HOUR (MPH)
VRB    - VARIABLE WIND DIRECTION
PRES   - MEAN SEA LEVEL PRESSURE IN INCHES OF MERCURY
         F - FALLING PRESSURE   R - RISING PRESSURE
         S - STEADY PRESSURE
VSB    - VISIBILITY IN MILES
HX     - HEAT INDEX IN FAHRENHEIT
WCI    - WIND CHILL INDEX IN FAHRENHEIT
N/A    - NOT AVAILABLE
AFB    - AIR FORCE BASE
         DAVIS-MONTHAN IS DAVIS-MONTHAN AIR FORCE BASE
CYN    - CANYON
MTNS   - MOUNTAINS
NCA    - NATIONAL CONSERVATION AREA
NR     - NEAR
VLY    - VALLEY
CONTL  - CONTINENTAL
PIMA CO DEQ - PIMA COUNTY DEPT OF ENVIRONMENTAL QUALITY



USA.gov is the U.S. government's official web portal to all federal, state and local government web resources and services.